+ View the NASA Portal
+ Center for Near-Earth Object Studies
IMPORTANT:
The SSD Announcement email list is now available. Major changes are coming in the near future, including possible hostname and/or URL changes. To be notified of such changes, subscribe to this email list.
Please visit
this page
for more details.
Don't show this message again
JPL Small-Body Database Browser
Search:
[
help
]
226349 (2003 FL133)
Classification:
Jupiter Trojan
SPK-ID:
2226349
[
Ephemeris
|
Orbit Diagram
|
Orbital Elements
|
Mission Design
|
Physical Parameters
|
Discovery Circumstances
]
[ show orbit diagram ]
Orbital Elements at Epoch 2458600.5 (2019-Apr-27.0) TDB
Reference:
JPL 16
(heliocentric ecliptic J2000)
Element
Value
Uncertainty (1-sigma)
Units
e
.04040591984293831
9.2627e-08
a
5.168995126256718
2.1311e-07
au
q
4.96013712351665
4.1066e-07
au
i
11.22088187093452
8.7672e-06
deg
node
192.5399583493948
3.0373e-05
deg
peri
324.9950911972954
0.00011429
deg
M
166.6445638975281
0.00011605
deg
t
p
2456613.507347147962
(2013-Nov-17.00734715)
0.001303
TDB
period
4292.473383449771
11.75
0.00026546
7.268e-07
d
yr
n
.0838677302899606
5.1866e-09
deg/d
Q
5.377853128996786
2.2172e-07
au
Orbit Determination Parameters
# obs. used (total)
223
data-arc span
6447 days (17.65 yr)
first obs. used
2002-02-06
last obs. used
2019-10-02
planetary ephem.
DE431
SB-pert. ephem.
SB431-N16
condition code
0
norm. resid. RMS
.55324
source
ORB
producer
Otto Matic
solution date
2019-Nov-08 00:51:38
Additional Information
Earth MOID
= 3.97474 au
Jupiter MOID
= .358213 au
T_jup
= 2.960
[ show covariance matrix ]
[
Ephemeris
|
Orbit Diagram
|
Orbital Elements
|
Mission Design
|
Physical Parameters
|
Discovery Circumstances
]
Physical Parameter Table
Parameter
Symbol
Value
Units
Sigma
Reference
Notes
absolute magnitude
H
13.0
n/a
MPO454624
226349 (2003 FL133)
Discovered 2003-Mar-27 by Spacewatch at Kitt Peak
Reference:
20091202/Numbers.arc
Last Updated:
2009-12-04
[
Ephemeris
|
Orbit Diagram
|
Orbital Elements
|
Mission Design
|
Physical Parameters
|
Discovery Circumstances
]
2019-Dec-15 13:14 UT
(server date/time)
Site Manager:
Ryan S. Park
Webmaster
:
Alan B. Chamberlin